STARLINK-31971, 59934

Orbit data source: Space-Track

STARLINK-31971, 59934 is a payload satellite owned by SpaceX/Seattle (US) in LEO that was launched on Sat, 01 Jun 2024 UTC via an FALCON 9 launch vehicle from the Air Force Eastern Test Range (AFETR). Payload-class satellites include a variety of spacecraft equipped with specific instruments for various scientific and technological missions. These include communications satellites like Starlink; space stations such as the ISS; scientific satellites like the Hubble; Earth observation satellites from companies like Planet Labs, Umbra, and HawkEye 360; GPS; miniature CubeSats for education and research; and military/defense satellites.

Loading next visibility...
Identifier
59934, 2024-106N
Orbit
LEO
Country
Flag of USUS
Related business
Manufacturer
SpaceX/Seattle
Mission
Operational Commercial Communications
Bus & Motor
STARLINK V2M, Unknown motor
Mass
730 kg wet, ~700 kg dry
Launch date (UTC)
2024-06-01 (2 years ago)
Launch vehicle
FALCON 9
Launch site
Air Force Eastern Test Range (AFETR)
Object type
Payload
Rocket body
Debris
Shape & HBR
Box + 2 Pan, 17.7 m
Radar Cross Section
33.884 m², Large (>1 m²)

Expand to show TLE details & history
Last TLE update: 8 hours ago

TLE from 8 hours ago
0 STARLINK-31971
1 59934U 24106N   25342.77383229 -.00000881  00000-0 -22480-4 0  9999
2 59934  43.0024 122.7728 0001314 296.1897  63.8820 15.27574329 86539
Epoch: 2025-12-08T18:34Z
TLE epoch observation values (Epoch: 2025-12-08T18:34:19.109Z)
Latitude
Longitude
126.42513°
Altitude
482.445 km
Speed
7.626 km/s
True Right ascension
08h 11m 05s
True Declination
0° 00' 00"
Sunlit
Object was in full shadow at epoch
Visualization orbit readout
Latitude
Unknown
Longitude
Unknown
Altitude
Unknown
Speed
Unknown
Apparent Right ascension
Unknown
Apparent Declination
Unknown
Sunlit
N/A
Visualization observer readout
Local Sidereal Time
00:32:54
Azimuth
Unknown
Elevation
Unknown
Doppler factor
Unknown
Orbital elements
Apogee altitude
485.913 km
Perigee altitude
484.109 km
Semi-major axis
6,863.148 km
Eccentricity
0.00013
Inclination
43.0024°
RAAN
122.7728°
Arg. of periapsis
296.1897°
True anomaly
63.89552°
Mean anomaly
63.882°
Eccentric anomaly
63.88876°
Mean motion
3.81732 °/min
Orbital period
94.31 mins
BSTAR
-0.00002248
Loading maneuver chart data...
Computing Atmospheric mass density...
Loading historical data...
Loading historical data...
Loading historical data...
Loading historical data...
Loading historical data...
Loading historical data...
Loading historical data...

Documentation

Showing up to 5 results
|